Regional Weather Roundup
Issued by NWS

Home | Current Version | Previous Version | Text Only | Print | Product List | Glossary On
Versions: 1 2 3 4 5 6 7 8 9 10 11 12 13 14 15 16 17 18 19 20 21 22 23 24 25 26 27 28 29 30 31 32 33 34 35 36 37 38 39 40 41 42 43 44 45 46 47 48 49 50
000
ASUS42 KFFC 250910
RWRGA
WEATHER ROUNDUP FOR GEORGIA
NATIONAL WEATHER SERVICE PEACHTREE CITY GA
500 AM EDT FRI MAY 25 2018

NOTE: "FAIR" INDICATES FEW OR NO CLOUDS BELOW 12,000 FEET WITH NO
SIGNIFICANT WEATHER AND/OR OBSTRUCTIONS TO VISIBILITY.

* = USE WITH CAUTION. THE STATIONS MARKED WITH AN ASTERISK MAY NOT
REPORT WEATHER SUCH AS PRECIPITATION, FOG, OR THUNDER AND ARE NOT
QUALITY CONTROLLED BY NWS.

THE REMARK "TC" DENOTES TEMPERATURE READING IN DEGREES CELSIUS.

GAZ001>058-251000-
NORTH GEORGIA

CITY           SKY/WX    TMP DP  RH WIND       PRES   REMARKS
ATLANTA        CLOUDY    71  67  87 E8        30.05F
ATHENS         CLOUDY    70  70 100 E5        30.07F
CHAMBLEE       CLOUDY    69  68  96 CALM      30.06S
PEACHTREE CITY CLOUDY    72  70  93 E3        30.05F
ROME           CLOUDY    72  70  93 CALM      30.04S
WEST ATLANTA   CLOUDY    71  70  96 E5        30.05S
GAINESVILLE    CLOUDY    68  68 100 E5        30.10F
CARTERSVILLE   CLOUDY    71  69  93 CALM      30.06F


CITY           SKY/WX    TMP DP  RH WIND       PRES   REMARKS
DALTON*        FAIR      68  68 100 CALM      30.07S
LAWRENCEVILLE* CLOUDY    69  67  93 MISG        N/A
MARIETTA       CLOUDY    70  68  94 E6        30.06S
KENNESAW*      CLOUDY    70  68  93 E3        30.07F
CANTON*        CLOUDY    70  68  94 CALM      30.09S
BLAIRSVILLE*   CLOUDY    66  65  96 NE3       30.12S
$$

GAZ059>098-102>109-251000-
CENTRAL GEORGIA

CITY           SKY/WX    TMP DP  RH WIND       PRES   REMARKS
AUGUSTA-BUSH   CLOUDY    70  69  97 CALM      30.07S
AUGUSTA-DANIEL CLOUDY    71  70  96 E7        30.08F
COLUMBUS       LGT RAIN  73  71  93 E5        30.01S
MACON          CLOUDY    71  71 100 E5        30.03S
ROBINS AFB     CLOUDY    72  71  99 CALM      30.02S


CITY           SKY/WX    TMP DP  RH WIND       PRES   REMARKS
LAGRANGE*      FAIR      73  72  98 CALM      30.03S
SYLVANIA*      CLOUDY    72  72 100 E5        30.07S FOG
MILLEDGEVILLE* CLOUDY    72  72 100 E3        30.05S
$$

GAZ099>101-110>166-251000-
SOUTH GEORGIA

CITY           SKY/WX    TMP DP  RH WIND       PRES   REMARKS
SAVANNAH       FAIR      74  73  97 E5        30.06S
VALDOSTA       FAIR      69  69 100 CALM      30.02S
ALMA           FOG       69  68  96 CALM      30.04R VSB 1/2
ST SIMONS      MOCLDY    76  74  93 SE6       30.04R
FT STEWART     FAIR      71  71  99 CALM      30.03S
ALBANY         MOCLDY    70  69  97 NW3       30.03S
HUNTER AFB     FAIR      73  71  94 CALM      30.03S
MOODY AFB      FAIR      70  69  99 SE3       30.01R
BRUNSWICK      FAIR      70  68  94 E3        30.04S


CITY           SKY/WX    TMP DP  RH WIND       PRES   REMARKS
BAINBRIDGE*    MOCLDY    72  72 100 CALM      30.00F
MOULTRIE*      FAIR      72  70  94 SE5       30.03S
VIDALIA*       CLOUDY    72  68  88 CALM      30.06S
WAYCROSS*      FOG       70  67  90 CALM      30.04R VSB 1/4
DOUGLAS*       FAIR      68  68 100 CALM      30.05S
$$



USA.gov is the U.S. government's official web portal to all federal, state and local government web resources and services.